Time,TemperatureF,DewpointF,PressureIn,WindDirection,WindDirectionDegrees,WindSpeedMPH,WindSpeedGustMPH,Humidity,HourlyPrecipIn,Conditions,Clouds,dailyrainin,SoftwareType,DateUTC
2013-01-14 00:04:00,61.0,60.0,30.13,South,189,0.0,2.0,96,0.01,,,0.01,,2013-01-14 05:04:00,
2013-01-14 00:12:00,61.0,60.0,30.13,South,189,0.0,2.0,96,0.01,,,0.01,,2013-01-14 05:12:00,
2013-01-14 00:22:00,59.0,58.0,30.13,South,189,0.0,2.0,96,0.01,,,0.01,,2013-01-14 05:22:00,
2013-01-14 00:33:00,58.0,57.0,30.12,South,189,0.0,2.0,96,0.00,,,0.01,,2013-01-14 05:33:00,
2013-01-14 00:42:00,58.0,57.0,30.12,South,189,0.0,2.0,96,0.00,,,0.01,,2013-01-14 05:42:00,
2013-01-14 00:52:00,58.0,57.0,30.13,South,169,0.0,3.0,97,0.00,,,0.01,,2013-01-14 05:52:00,
2013-01-14 01:03:00,57.0,56.0,30.13,SE,141,1.0,3.0,97,0.00,,,0.01,,2013-01-14 06:03:00,
2013-01-14 01:12:00,57.0,56.0,30.13,SE,141,1.0,3.0,97,0.00,,,0.01,,2013-01-14 06:12:00,
2013-01-14 01:22:00,57.0,56.0,30.13,SSE,148,0.0,3.0,97,0.00,,,0.01,,2013-01-14 06:22:00,
2013-01-14 01:33:00,57.0,56.0,30.13,SSE,148,0.0,2.0,97,0.00,,,0.01,,2013-01-14 06:33:00,
2013-01-14 01:43:00,57.0,56.0,30.13,SSE,148,0.0,2.0,97,0.00,,,0.01,,2013-01-14 06:43:00,
2013-01-14 01:52:00,59.0,58.0,30.14,South,187,0.0,2.0,98,0.00,,,0.01,,2013-01-14 06:52:00,
2013-01-14 02:02:00,59.0,58.0,30.13,South,169,0.0,2.0,97,0.00,,,0.01,,2013-01-14 07:02:00,
2013-01-14 02:12:00,59.0,58.0,30.13,South,169,0.0,2.0,97,0.00,,,0.01,,2013-01-14 07:12:00,
2013-01-14 02:23:00,58.0,57.0,30.14,SSW,203,1.0,3.0,98,0.00,,,0.01,,2013-01-14 07:23:00,
2013-01-14 02:33:00,59.0,58.0,30.14,SSW,213,0.0,3.0,98,0.00,,,0.01,,2013-01-14 07:33:00,
2013-01-14 02:42:00,59.0,58.0,30.14,SSW,213,0.0,3.0,98,0.00,,,0.01,,2013-01-14 07:42:00,
2013-01-14 02:52:00,60.0,59.0,30.14,SSE,161,1.0,3.0,98,0.00,,,0.01,,2013-01-14 07:52:00,
2013-01-14 03:02:00,60.0,59.0,30.14,SSE,155,1.0,4.0,98,0.00,,,0.01,,2013-01-14 08:02:00,
2013-01-14 03:12:00,60.0,59.0,30.14,SSE,155,1.0,4.0,98,0.00,,,0.01,,2013-01-14 08:12:00,
2013-01-14 03:22:00,59.0,58.0,30.14,South,171,2.0,6.0,98,0.00,,,0.01,,2013-01-14 08:22:00,
2013-01-14 03:33:00,58.0,57.0,30.13,South,180,2.0,7.0,97,0.00,,,0.01,,2013-01-14 08:33:00,
2013-01-14 03:42:00,58.0,57.0,30.13,South,180,2.0,7.0,97,0.00,,,0.01,,2013-01-14 08:42:00,
2013-01-14 03:53:00,58.0,57.0,30.13,South,180,2.0,7.0,97,0.00,,,0.01,,2013-01-14 08:53:00,
2013-01-14 04:03:00,59.0,58.0,30.12,SSE,148,2.0,4.0,98,0.00,,,0.01,,2013-01-14 09:03:00,
2013-01-14 04:12:00,59.0,58.0,30.12,SSE,148,2.0,4.0,98,0.00,,,0.01,,2013-01-14 09:12:00,
2013-01-14 04:23:00,59.0,58.0,30.11,SSW,202,2.0,6.0,98,0.00,,,0.01,,2013-01-14 09:23:00,
2013-01-14 04:33:00,58.0,57.0,30.10,South,179,3.0,7.0,98,0.00,,,0.01,,2013-01-14 09:33:00,
2013-01-14 04:43:00,58.0,57.0,30.10,South,179,3.0,7.0,98,0.00,,,0.01,,2013-01-14 09:43:00,
2013-01-14 04:52:00,59.0,58.0,30.10,South,181,2.0,4.0,98,0.00,,,0.01,,2013-01-14 09:52:00,
2013-01-14 05:02:00,59.0,58.0,30.10,SW,215,0.0,3.0,98,0.00,,,0.01,,2013-01-14 10:02:00,
2013-01-14 05:12:00,59.0,58.0,30.10,SW,215,0.0,3.0,98,0.00,,,0.01,,2013-01-14 10:12:00,
2013-01-14 05:23:00,60.0,59.0,30.10,South,189,2.0,5.0,98,0.00,,,0.01,,2013-01-14 10:23:00,
2013-01-14 05:32:00,60.0,59.0,30.10,SSW,198,1.0,4.0,98,0.00,,,0.01,,2013-01-14 10:32:00,
2013-01-14 05:42:00,60.0,59.0,30.10,SSW,198,1.0,4.0,98,0.00,,,0.01,,2013-01-14 10:42:00,
2013-01-14 05:52:00,61.0,60.0,30.10,South,188,1.0,5.0,98,0.00,,,0.01,,2013-01-14 10:52:00,
2013-01-14 06:02:00,61.0,60.0,30.10,SW,236,1.0,6.0,98,0.00,,,0.01,,2013-01-14 11:02:00,
2013-01-14 06:12:00,61.0,60.0,30.10,SW,236,1.0,6.0,98,0.00,,,0.01,,2013-01-14 11:12:00,
2013-01-14 06:22:00,61.0,60.0,30.11,West,268,2.0,6.0,98,0.00,,,0.01,,2013-01-14 11:22:00,
2013-01-14 06:33:00,61.0,61.0,30.11,West,259,1.0,7.0,99,0.00,,,0.01,,2013-01-14 11:33:00,
2013-01-14 06:42:00,61.0,61.0,30.11,West,259,1.0,7.0,99,0.00,,,0.01,,2013-01-14 11:42:00,
2013-01-14 06:53:00,61.0,60.0,30.12,WSW,241,1.0,4.0,98,0.00,,,0.01,,2013-01-14 11:53:00,
2013-01-14 07:03:00,61.0,60.0,30.12,WSW,254,0.0,3.0,98,0.00,,,0.01,,2013-01-14 12:03:00,
2013-01-14 07:12:00,61.0,60.0,30.12,WSW,254,0.0,3.0,98,0.00,,,0.01,,2013-01-14 12:12:00,
2013-01-14 07:23:00,61.0,60.0,30.13,West,270,0.0,4.0,98,0.00,,,0.01,,2013-01-14 12:23:00,
2013-01-14 07:33:00,61.0,60.0,30.13,West,270,0.0,3.0,98,0.00,,,0.01,,2013-01-14 12:33:00,
2013-01-14 07:43:00,61.0,60.0,30.13,West,270,0.0,3.0,98,0.00,,,0.01,,2013-01-14 12:43:00,
2013-01-14 07:53:00,61.0,60.0,30.14,West,270,0.0,3.0,98,0.00,,,0.01,,2013-01-14 12:53:00,
2013-01-14 08:03:00,61.0,60.0,30.14,West,270,0.0,0.0,98,0.00,,,0.01,,2013-01-14 13:03:00,
2013-01-14 08:12:00,61.0,60.0,30.14,West,270,0.0,0.0,98,0.00,,,0.01,,2013-01-14 13:12:00,
2013-01-14 08:23:00,59.0,58.0,30.14,West,270,0.0,1.0,97,0.00,,,0.01,,2013-01-14 13:23:00,
2013-01-14 08:33:00,57.0,56.0,30.15,West,269,0.0,2.0,98,0.00,,,0.01,,2013-01-14 13:33:00,
2013-01-14 08:43:00,57.0,56.0,30.15,West,269,0.0,2.0,98,0.00,,,0.01,,2013-01-14 13:43:00,
2013-01-14 08:53:00,58.0,57.0,30.16,West,269,0.0,0.0,98,0.00,,,0.01,,2013-01-14 13:53:00,
2013-01-14 09:03:00,59.0,59.0,30.16,West,269,0.0,0.0,99,0.00,,,0.01,,2013-01-14 14:03:00,
2013-01-14 09:13:00,59.0,59.0,30.16,West,269,0.0,0.0,99,0.00,,,0.01,,2013-01-14 14:13:00,
2013-01-14 09:23:00,61.0,61.0,30.17,West,269,0.0,1.0,99,0.00,,,0.01,,2013-01-14 14:23:00,
2013-01-14 09:33:00,63.0,63.0,30.17,South,175,0.0,1.0,99,0.00,,,0.01,,2013-01-14 14:33:00,
2013-01-14 09:43:00,63.0,63.0,30.17,South,175,0.0,1.0,99,0.00,,,0.01,,2013-01-14 14:43:00,
2013-01-14 09:53:00,63.0,63.0,30.17,SSE,164,0.0,4.0,99,0.00,,,0.01,,2013-01-14 14:53:00,
2013-01-14 10:03:00,62.0,61.0,30.17,SSE,150,2.0,3.0,98,0.00,,,0.01,,2013-01-14 15:03:00,
2013-01-14 10:12:00,62.0,61.0,30.17,SSE,150,2.0,3.0,98,0.00,,,0.01,,2013-01-14 15:12:00,
2013-01-14 10:23:00,61.0,61.0,30.17,South,191,0.0,5.0,99,0.00,,,0.01,,2013-01-14 15:23:00,
2013-01-14 10:33:00,62.0,61.0,30.17,SSE,150,0.0,3.0,98,0.00,,,0.01,,2013-01-14 15:33:00,
2013-01-14 10:43:00,62.0,61.0,30.17,SSE,150,0.0,3.0,98,0.00,,,0.01,,2013-01-14 15:43:00,
2013-01-14 10:53:00,62.0,61.0,30.17,South,182,0.0,3.0,98,0.00,,,0.01,,2013-01-14 15:53:00,
2013-01-14 11:03:00,62.0,61.0,30.17,SSE,154,1.0,4.0,98,0.00,,,0.01,,2013-01-14 16:03:00,
2013-01-14 11:12:00,62.0,61.0,30.17,SSE,154,1.0,4.0,98,0.00,,,0.01,,2013-01-14 16:12:00,
2013-01-14 11:23:00,61.0,60.0,30.16,SSE,161,2.0,4.0,98,0.00,,,0.01,,2013-01-14 16:23:00,
2013-01-14 11:33:00,62.0,61.0,30.15,SSE,167,3.0,7.0,98,0.00,,,0.01,,2013-01-14 16:33:00,
2013-01-14 11:43:00,62.0,61.0,30.15,SSE,167,3.0,7.0,98,0.00,,,0.01,,2013-01-14 16:43:00,
2013-01-14 11:53:00,64.0,64.0,30.14,SSE,164,2.0,5.0,99,0.00,,,0.01,,2013-01-14 16:53:00,
2013-01-14 12:03:00,65.0,64.0,30.14,SSE,148,3.0,6.0,97,0.00,,,0.01,,2013-01-14 17:03:00,
2013-01-14 12:12:00,65.0,64.0,30.14,SSE,148,3.0,6.0,97,0.00,,,0.01,,2013-01-14 17:12:00,
2013-01-14 12:23:00,65.0,64.0,30.13,SSE,147,2.0,7.0,96,0.00,,,0.01,,2013-01-14 17:23:00,
2013-01-14 12:33:00,64.0,63.0,30.13,South,171,3.0,6.0,96,0.00,,,0.01,,2013-01-14 17:33:00,
2013-01-14 12:43:00,64.0,63.0,30.13,South,171,3.0,6.0,96,0.00,,,0.01,,2013-01-14 17:43:00,
2013-01-14 12:53:00,64.0,62.0,30.12,SE,133,4.0,7.0,94,0.00,,,0.01,,2013-01-14 17:53:00,
2013-01-14 13:03:00,62.0,60.0,30.11,East,100,3.0,7.0,93,0.00,,,0.01,,2013-01-14 18:03:00,
2013-01-14 13:13:00,62.0,60.0,30.11,East,100,3.0,7.0,93,0.00,,,0.01,,2013-01-14 18:13:00,
2013-01-14 13:23:00,62.0,60.0,30.11,East,100,3.0,7.0,93,0.00,,,0.01,,2013-01-14 18:23:00,
2013-01-14 13:33:00,62.0,60.0,30.11,SSE,147,3.0,7.0,94,0.01,,,0.02,,2013-01-14 18:33:00,
2013-01-14 13:43:00,62.0,60.0,30.11,SSE,147,3.0,7.0,94,0.01,,,0.02,,2013-01-14 18:43:00,
2013-01-14 13:53:00,63.0,61.0,30.10,SE,145,4.0,9.0,94,0.01,,,0.02,,2013-01-14 18:53:00,
2013-01-14 14:03:00,63.0,61.0,30.09,SSE,150,4.0,8.0,93,0.01,,,0.02,,2013-01-14 19:03:00,
2013-01-14 14:12:00,63.0,61.0,30.09,SSE,150,4.0,8.0,93,0.01,,,0.02,,2013-01-14 19:12:00,
2013-01-14 14:22:00,65.0,63.0,30.09,SSE,161,3.0,7.0,93,0.00,,,0.02,,2013-01-14 19:22:00,
2013-01-14 14:33:00,65.0,63.0,30.09,South,180,4.0,7.0,92,0.00,,,0.02,,2013-01-14 19:33:00,
2013-01-14 14:43:00,65.0,63.0,30.09,South,180,4.0,7.0,92,0.00,,,0.02,,2013-01-14 19:43:00,
2013-01-14 14:52:00,63.0,60.0,30.10,SSE,155,4.0,7.0,91,0.00,,,0.02,,2013-01-14 19:52:00,
2013-01-14 15:03:00,63.0,61.0,30.10,SSE,153,3.0,8.0,92,0.00,,,0.02,,2013-01-14 20:03:00,
2013-01-14 15:13:00,63.0,61.0,30.10,SSE,153,3.0,8.0,92,0.00,,,0.02,,2013-01-14 20:13:00,
2013-01-14 15:23:00,63.0,61.0,30.10,SSE,161,2.0,7.0,93,0.00,,,0.02,,2013-01-14 20:23:00,
2013-01-14 15:33:00,63.0,61.0,30.10,SSE,149,4.0,8.0,92,0.00,,,0.02,,2013-01-14 20:33:00,
2013-01-14 15:43:00,63.0,61.0,30.10,SSE,149,4.0,8.0,92,0.00,,,0.02,,2013-01-14 20:43:00,
2013-01-14 15:53:00,63.0,61.0,30.11,SSE,157,3.0,7.0,93,0.00,,,0.02,,2013-01-14 20:53:00,
2013-01-14 16:03:00,63.0,60.0,30.11,ESE,123,4.0,8.0,91,0.00,,,0.02,,2013-01-14 21:03:00,
2013-01-14 16:12:00,63.0,60.0,30.11,ESE,123,4.0,8.0,91,0.00,,,0.02,,2013-01-14 21:12:00,
2013-01-14 16:23:00,64.0,61.0,30.11,SSE,166,3.0,8.0,91,0.00,,,0.02,,2013-01-14 21:23:00,
2013-01-14 16:33:00,63.0,60.0,30.11,SSW,207,2.0,8.0,91,0.00,,,0.02,,2013-01-14 21:33:00,
2013-01-14 16:43:00,63.0,60.0,30.11,SSW,207,2.0,8.0,91,0.00,,,0.02,,2013-01-14 21:43:00,
2013-01-14 16:53:00,63.0,60.0,30.12,SSE,147,3.0,7.0,91,0.00,,,0.02,,2013-01-14 21:53:00,
2013-01-14 17:03:00,63.0,60.0,30.12,SSE,147,3.0,7.0,91,0.00,,,0.02,,2013-01-14 22:03:00,
2013-01-14 17:12:00,63.0,60.0,30.12,SSE,147,3.0,7.0,91,0.00,,,0.02,,2013-01-14 22:12:00,
2013-01-14 17:23:00,63.0,60.0,30.12,SSW,200,3.0,8.0,91,0.00,,,0.02,,2013-01-14 22:23:00,
2013-01-14 17:33:00,62.0,59.0,30.13,SSE,159,3.0,9.0,91,0.00,,,0.02,,2013-01-14 22:33:00,
2013-01-14 17:43:00,62.0,59.0,30.13,SSE,159,3.0,9.0,91,0.00,,,0.02,,2013-01-14 22:43:00,
2013-01-14 17:52:00,61.0,59.0,30.13,South,176,3.0,8.0,92,0.00,,,0.02,,2013-01-14 22:52:00,
2013-01-14 18:03:00,62.0,60.0,30.14,South,178,4.0,8.0,92,0.00,,,0.02,,2013-01-14 23:03:00,
2013-01-14 18:12:00,62.0,60.0,30.14,South,178,4.0,8.0,92,0.00,,,0.02,,2013-01-14 23:12:00,
2013-01-14 18:23:00,62.0,60.0,30.14,SSW,205,3.0,7.0,93,0.00,,,0.02,,2013-01-14 23:23:00,
2013-01-14 18:33:00,62.0,60.0,30.14,SSE,161,3.0,7.0,92,0.00,,,0.02,,2013-01-14 23:33:00,
2013-01-14 18:43:00,62.0,60.0,30.14,SSE,161,3.0,7.0,92,0.00,,,0.02,,2013-01-14 23:43:00,
2013-01-14 18:53:00,61.0,59.0,30.13,South,184,3.0,8.0,93,0.00,,,0.02,,2013-01-14 23:53:00,
2013-01-14 19:03:00,61.0,59.0,30.13,South,186,3.0,11.0,93,0.00,,,0.02,,2013-01-15 00:03:00,
2013-01-14 19:12:00,61.0,59.0,30.13,South,186,3.0,11.0,93,0.00,,,0.02,,2013-01-15 00:12:00,
2013-01-14 19:23:00,61.0,59.0,30.14,SSE,150,5.0,10.0,94,0.00,,,0.02,,2013-01-15 00:23:00,
2013-01-14 19:33:00,62.0,60.0,30.14,SE,142,4.0,10.0,94,0.00,,,0.02,,2013-01-15 00:33:00,
2013-01-14 19:43:00,62.0,60.0,30.14,SE,142,4.0,10.0,94,0.00,,,0.02,,2013-01-15 00:43:00,
2013-01-14 19:52:00,61.0,59.0,30.14,South,172,3.0,9.0,93,0.00,,,0.02,,2013-01-15 00:52:00,
2013-01-14 20:02:00,62.0,60.0,30.14,SSW,205,2.0,7.0,94,0.00,,,0.02,,2013-01-15 01:02:00,
2013-01-14 20:12:00,62.0,60.0,30.14,SSW,205,2.0,7.0,94,0.00,,,0.02,,2013-01-15 01:12:00,
2013-01-14 20:22:00,62.0,60.0,30.14,SSW,205,2.0,7.0,94,0.00,,,0.02,,2013-01-15 01:22:00,
2013-01-14 20:32:00,60.0,58.0,30.14,SSE,162,3.0,8.0,93,0.00,,,0.02,,2013-01-15 01:32:00,
2013-01-14 20:43:00,60.0,58.0,30.14,SSE,162,3.0,8.0,93,0.00,,,0.02,,2013-01-15 01:43:00,
2013-01-14 20:53:00,60.0,58.0,30.14,SSE,155,3.0,7.0,94,0.00,,,0.02,,2013-01-15 01:53:00,
2013-01-14 21:02:00,59.0,58.0,30.14,South,178,4.0,7.0,95,0.00,,,0.02,,2013-01-15 02:02:00,
2013-01-14 21:12:00,59.0,58.0,30.14,South,178,4.0,7.0,95,0.00,,,0.02,,2013-01-15 02:12:00,
2013-01-14 21:23:00,59.0,58.0,30.15,South,182,2.0,6.0,96,0.00,,,0.02,,2013-01-15 02:23:00,
2013-01-14 21:33:00,60.0,59.0,30.14,SSW,202,1.0,7.0,96,0.00,,,0.02,,2013-01-15 02:33:00,
2013-01-14 21:42:00,60.0,59.0,30.14,SSW,202,1.0,7.0,96,0.00,,,0.02,,2013-01-15 02:42:00,
2013-01-14 21:52:00,61.0,60.0,30.14,SSE,163,2.0,7.0,96,0.00,,,0.02,,2013-01-15 02:52:00,
2013-01-14 22:03:00,60.0,59.0,30.14,SSE,151,3.0,9.0,96,0.00,,,0.02,,2013-01-15 03:03:00,
2013-01-14 22:12:00,60.0,59.0,30.14,SSE,151,3.0,9.0,96,0.00,,,0.02,,2013-01-15 03:12:00,
2013-01-14 22:22:00,60.0,59.0,30.14,South,186,3.0,8.0,97,0.00,,,0.02,,2013-01-15 03:22:00,
2013-01-14 22:33:00,60.0,59.0,30.14,SSW,195,2.0,7.0,97,0.00,,,0.02,,2013-01-15 03:33:00,
2013-01-14 22:42:00,60.0,59.0,30.14,SSW,195,2.0,7.0,97,0.00,,,0.02,,2013-01-15 03:42:00,
2013-01-14 22:52:00,59.0,58.0,30.14,SSE,148,2.0,7.0,97,0.00,,,0.02,,2013-01-15 03:52:00,
2013-01-14 23:03:00,59.0,58.0,30.13,SSW,193,3.0,8.0,97,0.00,,,0.02,,2013-01-15 04:03:00,
2013-01-14 23:12:00,59.0,58.0,30.13,SSW,193,3.0,8.0,97,0.00,,,0.02,,2013-01-15 04:12:00,
2013-01-14 23:22:00,59.0,58.0,30.14,SSE,150,3.0,7.0,97,0.00,,,0.02,,2013-01-15 04:22:00,
2013-01-14 23:32:00,60.0,59.0,30.14,SE,133,2.0,7.0,97,0.00,,,0.01,,2013-01-15 04:32:00,
2013-01-14 23:42:00,60.0,59.0,30.14,SE,133,2.0,7.0,97,0.00,,,0.01,,2013-01-15 04:42:00,
2013-01-14 23:52:00,60.0,59.0,30.14,South,190,1.0,6.0,97,0.00,,,0.01,,2013-01-15 04:52:00,